ALOS (DAICHI)

Last updated on Sat Aug 15 2026 00:02:08 GMT+0000 (Coordinated Universal Time)

1 28931U 06002A 26226.62485490 .00000498 00000+0 91002-4 0 9993 2 28931 98.1366 182.0270 0001887 105.9931 254.1483 14.70155345 96681
UTC large
Height (km)
Speed (km/s)
/
Latitude / Longitude
Inclination (degrees)
Orbital Period (minutes)
Azimuth
Elevation
Range (km)
Doppler Factor

Next 0 passes for location: London (51.5072 / 0.1276)

No passes found over London.
ALOS (DAICHI)